Theta_e
303 303 303 303 303 303 303 303 303 303 303 303 304 304 304 304 304 305 305 305 305 306 306 306 306 309 315 318 319 320 320 320 319 318 317 317 317 316 317 319 320 318 320 320 320 320 319 317 314 321 329 329 334 342 347 349 351 353 354 357 355 356 356 353 351 350 352 353 353 352 351 353 353 351 350 350 351 353 354 352 351 352 352 352 352 352 351 350
303 303 303 303 303 303 303 304 304 304 304 303 304 304 304 304 305 305 305 305 305 306 307 307 306 307 311 316 318 319 321 320 319 319 319 318 317 316 316 317 320 319 319 320 319 320 319 318 315 322 331 330 331 338 344 347 350 352 354 356 354 355 354 349 349 348 350 353 353 352 351 351 352 351 350 350 352 354 354 351 351 352 352 353 353 352 351 351
303 303 303 303 303 303 303 304 304 303 303 304 304 304 304 304 304 305 305 305 305 305 306 307 307 306 310 315 318 319 320 319 319 321 321 320 317 317 316 316 318 319 319 319 318 319 318 316 315 323 330 331 333 336 340 342 346 349 351 355 354 353 350 347 349 348 348 350 351 351 351 351 350 350 350 349 350 353 353 351 351 352 353 353 353 352 351 351
303 303 303 303 303 303 304 304 304 304 304 304 304 304 304 304 304 305 305 305 305 305 306 307 308 308 311 315 317 318 319 318 320 322 323 322 320 318 317 317 317 318 318 318 318 317 318 320 318 326 331 331 333 335 338 340 344 347 348 352 350 348 349 348 347 347 346 348 350 350 349 349 348 349 350 349 351 352 352 352 351 352 353 353 353 353 352 353
303 303 303 303 303 304 304 304 304 304 304 304 304 304 304 304 304 305 305 305 305 305 305 306 308 311 313 315 317 318 318 320 323 323 324 324 323 320 317 318 317 318 318 318 319 315 321 328 326 329 332 332 334 336 338 341 344 346 345 347 346 345 350 350 347 346 345 346 348 348 348 348 346 349 349 349 352 352 352 352 351 351 352 353 353 353 354 354
303 303 303 304 304 304 304 304 304 304 304 304 304 304 304 304 304 305 305 305 305 305 305 306 309 312 314 316 316 317 318 322 324 323 323 323 323 321 318 319 318 318 318 318 318 316 323 331 329 330 333 332 335 336 338 341 344 345 343 344 344 346 348 349 347 345 345 346 347 347 347 346 346 348 348 348 350 351 352 352 351 351 353 353 353 353 353 353
303 304 303 304 304 304 304 304 304 304 304 304 304 305 304 304 304 304 304 305 305 305 305 306 309 312 314 315 315 316 316 321 323 324 323 322 322 321 319 319 318 318 317 318 318 316 323 328 326 329 333 333 335 336 338 341 344 345 343 342 343 344 345 346 346 345 346 346 346 346 346 345 347 348 347 348 349 350 352 352 351 351 353 353 353 353 353 353
304 304 304 304 304 304 305 305 305 305 305 305 305 305 305 304 304 304 305 305 305 305 305 306 309 312 314 315 315 315 316 321 324 324 323 320 321 321 319 318 318 317 317 318 318 316 321 324 324 325 330 333 335 335 338 341 343 344 343 342 342 344 345 346 346 346 346 345 345 345 346 345 346 347 347 348 349 351 352 352 351 352 353 353 353 353 353 352
304 304 304 304 304 304 305 305 305 305 305 305 305 305 305 305 305 305 305 306 307 305 305 306 308 311 314 315 316 318 320 323 323 324 323 320 320 320 319 319 318 317 317 318 318 317 320 324 324 325 327 332 335 336 337 341 343 342 343 342 341 344 346 347 345 346 346 346 345 345 345 345 345 346 346 346 350 352 352 352 352 352 353 353 353 352 352 352
304 304 304 304 305 305 305 305 305 305 305 305 305 305 305 306 307 307 307 308 309 308 306 306 307 310 314 315 316 320 323 322 323 323 322 320 319 319 320 319 318 318 318 318 317 318 322 324 324 325 327 331 335 337 338 340 342 342 341 340 341 342 345 347 346 345 346 346 345 346 346 345 345 346 346 348 351 352 352 352 351 351 351 352 351 352 352 352
304 304 304 304 304 304 305 305 305 305 305 305 305 306 307 308 310 311 310 310 311 311 309 308 308 309 313 315 316 320 321 322 324 323 322 322 319 318 320 319 318 318 318 318 317 317 321 325 325 326 328 332 335 337 338 340 341 342 340 338 339 340 342 345 346 345 345 345 345 347 347 345 344 345 347 350 352 353 353 352 351 351 350 351 351 351 352 351
304 304 304 304 304 305 305 305 305 305 305 305 305 307 309 309 312 313 312 312 313 313 312 311 310 309 312 315 316 318 320 323 324 323 324 324 322 320 319 320 319 320 319 318 318 317 320 326 326 325 329 333 336 336 336 338 338 339 339 337 338 339 341 344 346 346 344 345 344 346 347 345 343 345 349 352 352 352 352 352 351 350 350 350 350 351 351 351
304 304 304 304 305 305 305 305 305 305 305 305 307 309 311 310 312 311 311 312 313 313 313 314 313 312 312 314 317 314 316 318 319 320 323 324 324 323 320 320 320 320 320 319 320 317 319 326 325 323 326 329 333 335 335 335 335 337 337 336 336 336 339 342 344 345 343 345 345 344 345 345 343 346 351 353 352 352 352 352 351 351 351 350 350 351 351 351
304 305 304 304 305 304 305 305 305 305 305 306 310 312 311 310 310 309 311 313 315 317 317 317 315 314 314 315 311 313 313 313 316 318 324 325 325 324 322 321 320 320 320 320 320 318 319 325 324 322 324 324 327 332 332 332 334 336 335 336 336 333 337 342 341 345 344 344 345 344 342 345 344 346 352 353 352 352 352 352 352 352 352 351 351 350 351 352
304 304 305 305 305 305 305 305 305 305 305 309 312 312 311 311 308 309 315 316 316 319 320 319 315 314 317 318 310 314 317 315 317 320 325 324 324 325 323 322 321 321 323 323 321 320 319 321 321 322 323 324 327 330 330 330 332 335 332 332 336 333 337 343 339 342 344 344 344 344 340 342 344 347 352 352 352 353 352 353 352 352 352 351 351 351 351 352
304 304 305 304 304 305 305 305 305 305 306 310 313 312 311 310 308 311 319 317 311 311 315 319 318 319 321 323 316 318 320 322 322 323 325 324 324 325 324 324 323 321 324 325 322 319 319 320 322 323 325 327 329 329 329 329 330 334 331 329 332 334 336 340 340 341 342 343 343 343 341 342 345 348 349 351 351 351 352 352 351 351 351 351 351 352 352 352
304 304 305 304 304 305 304 305 305 305 306 311 313 311 311 310 308 313 320 317 309 308 313 320 322 322 324 323 319 320 321 324 325 324 324 324 324 325 324 325 323 322 324 326 324 320 320 323 325 327 328 328 328 328 327 324 325 330 332 330 331 335 335 336 339 341 340 341 343 342 343 343 345 347 348 349 350 351 351 351 351 351 350 351 352 352 352 352
304 304 304 304 304 305 304 304 305 305 306 311 313 310 310 309 308 314 320 314 308 309 315 323 323 322 322 319 320 321 323 324 324 324 324 325 325 324 325 325 324 323 324 325 325 323 323 325 327 328 330 329 328 327 324 323 325 326 329 329 329 333 335 334 338 340 340 342 342 342 343 343 344 346 346 347 349 349 350 351 351 351 349 350 351 351 351 351
304 304 304 304 304 304 304 304 305 305 307 312 313 310 309 309 308 316 318 311 307 309 313 322 323 322 318 318 320 321 322 322 322 325 325 325 324 324 325 325 324 324 324 325 325 324 325 327 328 328 329 329 328 327 325 326 329 329 330 330 328 329 331 335 337 339 341 341 342 342 342 342 345 346 345 346 348 348 349 351 350 350 349 349 350 351 351 351
303 304 304 304 304 304 304 304 304 305 308 312 312 309 309 308 308 312 312 307 307 308 308 312 315 316 315 313 313 314 316 319 321 324 326 326 324 323 324 324 324 324 324 325 325 325 326 327 327 327 328 329 328 327 326 328 330 331 331 331 330 328 329 334 336 336 339 340 341 342 341 342 345 346 346 345 347 347 348 350 350 350 349 349 350 350 350 351
304 303 303 304 303 304 303 303 304 306 310 313 311 309 309 308 308 308 308 307 308 308 308 308 309 310 311 309 309 310 311 315 320 323 325 325 324 323 324 323 323 324 324 324 325 326 327 326 326 327 328 329 328 326 326 327 329 329 330 329 329 328 329 332 334 334 336 339 339 341 341 341 345 346 346 346 346 346 347 347 348 349 349 349 350 350 350 350
303 303 303 303 303 304 304 303 304 306 311 313 310 309 309 308 308 307 308 308 308 309 309 310 309 309 309 309 310 310 310 313 317 322 324 322 323 324 323 323 322 323 324 323 325 326 325 326 326 328 328 328 328 327 326 327 328 327 327 326 326 328 329 331 333 333 335 337 338 340 341 340 344 346 345 346 346 345 346 347 348 349 348 349 350 350 350 350
303 304 303 303 303 304 303 303 305 306 310 312 310 309 308 308 308 307 308 308 309 311 311 312 311 310 310 310 310 311 311 312 313 319 324 321 322 323 322 322 322 324 324 324 325 325 324 325 326 328 328 329 328 326 326 326 326 326 326 324 323 326 327 326 329 331 333 335 337 339 340 339 344 346 346 345 346 346 346 346 347 348 347 349 350 350 350 349
304 303 303 303 303 303 303 304 305 307 309 310 308 307 306 307 307 307 308 308 308 311 314 315 313 312 312 312 312 311 312 312 312 317 323 322 321 322 322 321 321 324 325 324 325 325 325 326 327 327 329 330 329 327 327 325 324 326 326 324 323 326 327 327 329 331 330 332 336 338 335 335 340 346 348 346 346 346 346 346 346 347 347 348 350 349 350 350
304 303 304 303 302 303 304 304 305 306 308 308 306 306 306 306 308 308 308 309 309 312 316 317 314 313 313 314 314 312 313 313 311 315 321 322 321 321 321 322 322 325 326 326 326 325 326 327 327 327 329 329 328 329 328 325 323 323 325 325 325 326 328 328 330 328 325 326 334 336 329 331 338 344 348 347 346 347 345 347 346 345 347 348 349 350 349 350
305 303 303 303 303 304 304 305 305 306 307 307 305 306 306 307 308 308 308 310 314 317 317 317 316 314 314 313 313 313 313 313 313 314 316 319 322 321 320 321 324 325 328 328 327 326 327 328 328 327 328 329 329 329 328 328 324 321 325 326 326 327 327 328 328 325 323 324 333 336 330 329 334 338 347 348 346 347 346 346 346 345 347 348 349 350 350 350
307 304 303 303 304 305 306 306 306 306 307 307 306 306 307 308 308 308 311 316 321 321 316 315 314 313 313 313 313 314 314 314 314 314 315 319 321 321 320 321 323 325 327 328 327 327 329 329 329 327 327 328 328 328 329 329 325 322 326 327 326 327 326 328 327 325 326 327 331 334 332 329 328 333 343 348 346 347 347 346 346 346 347 349 350 350 351 351
309 305 303 303 306 307 307 307 307 306 306 306 306 307 308 308 308 309 314 319 321 317 313 312 313 312 312 312 314 315 315 314 315 316 319 322 320 320 320 321 322 324 326 328 326 327 330 330 329 328 327 326 327 328 329 330 327 326 328 328 327 327 326 328 327 324 325 324 323 329 330 328 329 334 339 346 346 345 346 347 346 347 347 349 349 350 351 351
310 307 304 304 307 308 308 308 307 306 306 306 307 308 308 308 309 313 317 320 316 312 312 312 311 311 311 311 313 315 315 315 315 316 320 321 320 321 321 320 322 323 325 327 327 329 329 330 329 328 328 326 327 328 329 329 329 328 329 329 328 328 329 328 328 325 324 323 320 324 326 325 329 337 335 338 343 344 346 347 345 346 348 348 350 350 351 351
310 309 305 305 309 309 308 308 308 307 306 307 308 308 309 309 313 319 320 318 314 310 311 311 310 310 311 311 312 313 314 315 315 316 317 319 321 321 321 321 321 321 322 324 326 328 329 329 329 329 328 327 327 328 328 328 329 329 329 329 327 328 330 328 328 326 321 320 320 322 325 323 325 336 336 333 339 343 345 346 345 346 347 348 349 349 351 352
311 310 306 307 310 310 309 309 307 307 307 308 308 308 309 311 317 320 317 314 311 310 310 310 309 310 310 311 311 312 313 314 313 314 316 319 322 321 320 321 320 320 321 322 323 325 327 328 329 329 329 328 327 326 328 328 328 328 328 328 325 325 325 323 324 324 320 321 323 323 326 320 320 335 344 337 336 342 345 346 346 347 347 348 348 349 350 351
310 310 306 307 311 310 310 310 308 308 308 308 309 308 310 313 317 316 313 311 311 310 309 309 309 309 310 311 311 311 312 312 312 314 314 317 321 323 321 321 320 318 318 318 320 322 324 326 327 328 329 330 328 326 326 328 328 328 327 325 321 321 321 320 321 322 320 324 328 325 323 320 323 338 348 343 337 339 343 345 345 345 347 348 349 348 350 350
310 309 307 308 311 310 311 310 308 309 308 309 309 308 310 315 316 313 310 310 310 309 309 309 308 309 310 310 310 310 311 311 312 314 314 315 317 321 322 322 321 319 318 318 318 318 320 323 325 325 327 328 328 325 323 324 327 327 324 322 320 320 320 320 322 320 320 324 327 323 321 321 325 335 340 341 338 336 340 344 343 345 346 347 349 349 349 350
310 309 308 309 311 311 311 310 308 308 309 309 309 310 311 314 314 311 309 309 309 309 308 308 308 309 310 310 310 310 310 310 311 312 313 314 315 318 321 322 321 319 320 320 318 317 317 319 322 324 324 326 328 325 324 325 326 325 326 324 321 321 321 322 322 319 320 326 325 320 321 320 322 333 340 339 334 331 337 345 344 344 346 347 349 349 349 351
310 309 308 310 311 311 311 310 308 308 309 309 310 312 312 312 312 311 309 309 308 308 308 308 309 309 309 310 310 310 309 310 311 311 312 313 313 316 318 319 321 320 320 319 318 318 316 317 322 323 324 326 327 325 326 326 324 324 326 324 320 324 327 325 324 325 325 325 322 321 323 326 330 340 342 336 333 330 334 343 345 344 347 347 348 349 349 351
311 310 310 311 311 311 311 310 309 308 309 309 311 313 312 311 311 310 309 308 307 307 307 307 308 308 308 309 309 309 309 310 311 311 311 311 314 316 316 317 317 316 317 317 319 319 317 318 322 324 325 324 326 326 325 326 325 324 324 320 323 329 328 323 323 328 324 321 323 324 323 327 327 330 332 329 332 335 336 344 346 345 347 347 348 349 349 350
310 311 311 312 311 310 311 311 309 308 308 309 312 314 313 310 310 308 308 308 307 307 307 307 307 307 308 308 308 309 309 310 311 310 310 311 314 316 315 315 316 314 315 315 318 321 319 319 323 324 325 323 324 326 325 327 328 325 322 321 327 327 325 325 325 325 321 320 324 322 320 324 322 325 335 332 329 332 336 344 348 345 347 348 348 350 349 349
309 310 312 312 310 309 310 310 310 309 308 310 313 315 313 309 308 307 307 307 307 308 308 307 307 308 307 307 308 308 309 310 310 310 310 311 313 315 315 314 314 314 313 314 317 320 320 321 323 323 325 325 325 325 324 325 326 326 325 325 328 323 320 323 324 322 320 319 322 321 320 323 322 325 334 330 327 330 332 341 349 347 347 348 348 349 349 350
309 310 312 310 309 310 309 309 309 308 309 312 314 314 311 308 308 308 308 307 307 307 308 307 307 308 308 307 308 308 309 309 310 310 310 310 312 314 314 312 313 313 313 314 316 318 320 322 323 323 324 326 326 324 321 322 326 327 325 326 329 325 320 322 321 322 324 322 321 321 319 322 326 329 330 327 328 329 327 338 348 348 347 348 348 349 349 349
308 310 311 310 309 310 310 309 308 308 310 313 313 311 309 308 308 308 308 308 308 308 307 307 307 308 308 307 308 308 309 309 310 309 310 311 312 314 314 312 312 312 312 313 314 317 321 324 325 326 324 324 324 323 323 323 324 324 322 322 324 323 323 324 321 323 329 329 325 322 320 324 330 329 328 327 328 328 326 333 343 348 347 347 348 348 349 349
307 308 310 310 309 309 309 309 309 309 311 312 310 308 309 309 309 308 308 308 308 308 308 307 307 308 307 307 308 308 308 309 310 310 310 311 313 313 313 312 312 311 311 312 313 316 320 322 324 326 324 322 323 325 327 326 326 325 323 322 322 321 321 320 320 322 323 328 332 328 323 329 339 332 328 329 327 328 327 326 337 347 347 347 348 348 348 349
306 308 310 309 309 309 308 309 309 308 309 309 308 308 309 309 308 308 308 308 308 308 308 308 308 307 307 308 308 308 308 309 310 311 311 311 312 313 313 312 312 311 311 312 312 315 319 320 323 325 324 323 324 326 326 326 328 327 325 324 324 324 320 317 320 321 316 321 331 328 321 330 349 342 330 329 327 327 328 324 331 343 347 347 348 347 349 349
306 308 310 309 308 309 309 309 309 308 308 308 308 308 308 308 308 308 308 308 308 308 308 308 308 307 307 308 307 307 308 310 310 310 311 311 312 312 312 311 311 310 311 312 312 314 318 320 321 323 325 326 327 329 327 327 327 326 325 326 324 324 323 321 327 328 319 317 321 321 318 327 352 356 338 333 330 326 327 325 329 342 347 347 348 347 349 349
306 307 308 308 308 309 308 308 309 308 309 309 308 307 308 308 308 308 308 308 308 308 308 308 308 308 307 308 308 307 308 311 311 310 310 311 312 311 312 311 311 310 310 311 313 314 317 317 317 322 330 329 325 327 328 326 326 324 326 327 324 326 325 324 330 329 321 319 320 320 320 328 355 367 344 334 331 327 328 326 328 341 347 346 347 347 347 348
306 307 307 307 308 308 308 308 308 308 308 309 308 307 308 308 308 309 309 308 308 308 308 308 308 308 308 308 308 307 308 310 310 311 310 310 311 311 311 311 310 311 311 313 314 315 315 315 315 322 331 331 327 330 330 326 326 326 327 326 325 326 323 323 326 322 320 325 323 319 322 331 351 358 340 332 331 327 328 327 330 340 345 345 347 346 347 349
306 307 306 306 307 308 307 307 308 308 308 309 308 308 308 308 308 309 309 308 308 308 308 308 308 308 308 309 308 307 307 308 310 311 310 310 310 310 310 311 310 311 313 315 315 314 314 315 315 318 324 326 326 328 328 326 326 326 326 325 325 326 323 326 327 322 326 332 324 322 327 328 338 350 341 333 331 330 332 332 335 340 342 344 346 346 347 347
306 306 306 306 307 307 307 307 307 307 309 309 308 308 308 308 308 308 308 308 308 308 309 308 308 308 309 308 308 307 307 308 309 310 310 310 310 310 310 311 311 312 314 313 313 314 315 315 315 316 319 319 319 320 320 323 326 326 326 325 325 327 324 323 323 325 334 332 321 329 337 328 333 350 346 336 338 345 351 345 339 339 342 344 344 345 347 346
306 306 305 305 307 307 306 306 307 307 308 309 309 308 308 308 308 308 309 308 308 308 309 310 309 309 308 308 308 309 308 308 309 310 310 310 310 310 311 311 311 312 312 311 311 313 314 314 314 314 315 314 314 317 320 323 326 329 328 326 324 326 325 322 323 329 338 331 323 335 344 333 336 348 346 343 345 352 357 350 339 339 343 344 343 345 347 346
306 306 305 306 306 306 306 306 307 308 308 309 310 309 308 308 308 308 308 308 308 308 309 309 309 308 308 309 309 309 309 309 309 310 310 310 310 311 311 312 312 312 310 310 311 312 313 315 315 314 314 313 315 319 322 325 328 329 329 328 326 327 326 324 325 330 337 336 337 346 348 341 339 342 345 345 340 342 346 344 339 340 344 343 342 344 346 346
306 306 306 306 306 306 306 307 307 307 308 309 310 310 308 308 308 308 308 308 308 309 308 308 308 308 308 309 309 309 309 309 309 309 309 310 311 312 313 312 312 311 310 309 310 311 313 315 315 313 313 314 317 322 323 324 327 328 330 331 328 326 327 325 325 329 333 334 341 349 348 344 341 340 341 337 333 337 344 342 340 342 342 342 343 344 345 346
306 306 306 306 306 306 306 307 306 307 308 309 309 309 308 308 309 308 308 308 308 309 308 308 308 308 309 309 309 310 308 308 309 308 308 309 309 311 314 313 311 310 309 309 309 310 312 314 314 313 313 315 318 320 321 323 327 330 332 334 330 326 327 325 324 329 331 330 339 346 342 341 340 338 338 336 334 339 341 336 337 342 343 343 342 342 344 345
307 306 306 306 306 306 306 306 306 307 309 309 309 309 308 308 308 308 308 308 308 308 308 308 308 310 310 309 309 309 308 308 308 308 308 308 308 309 310 310 310 310 309 310 310 309 311 313 313 313 313 316 316 318 322 326 330 330 329 331 332 330 333 331 328 336 339 335 339 343 341 344 342 336 336 337 334 336 338 333 332 339 343 343 343 343 344 344
Wind_Speed
22 22 22 22 22 21 21 21 21 21 21 21 22 22 22 22 22 21 20 18 17 16 16 16 15 14 15 16 17 17 18 18 17 21 27 23 18 17 17 14 13 19 22 20 20 18 17 19 21 22 20 19 20 22 22 19 17 11 5 4 5 3 4 3 2 6 8 6 8 12 17 12 6 12 15 13 15 23 22 14 19 15 18 31 32 40 42 41
23 23 23 23 23 23 23 23 22 22 22 22 22 23 22 22 22 21 20 18 17 16 15 15 15 15 14 15 16 17 18 18 19 25 23 15 15 15 17 19 18 20 23 24 23 21 20 21 23 24 23 18 17 21 19 16 17 11 4 3 6 4 5 6 4 9 12 9 13 17 20 18 13 17 19 14 16 21 16 13 21 22 24 29 36 41 40 43
24 24 24 24 24 24 24 24 23 23 22 23 23 23 23 22 22 21 21 19 17 16 15 15 15 15 14 14 15 16 17 17 22 25 13 8 16 16 15 20 23 22 22 23 24 23 19 19 22 25 23 17 17 18 15 14 14 13 7 3 7 8 7 7 5 10 18 19 15 15 18 19 19 22 20 14 17 18 14 16 22 26 32 34 38 41 41 43
25 25 25 25 25 24 24 24 24 24 23 23 23 23 23 23 22 21 20 19 17 16 15 14 14 14 13 13 13 13 14 16 17 14 4 3 12 17 18 20 25 27 23 21 22 23 19 16 20 25 20 13 17 17 13 15 12 10 10 7 9 8 7 11 10 12 24 28 20 20 20 17 20 21 19 17 14 10 16 26 29 34 40 39 40 42 42 41
25 25 25 25 25 25 25 25 24 24 24 24 24 24 24 23 22 22 20 19 17 16 15 13 13 13 13 12 11 10 8 8 4 4 3 1 5 16 22 22 24 25 24 21 21 25 21 17 19 23 16 10 13 12 15 23 15 7 11 14 14 8 5 11 14 12 20 25 21 21 18 17 23 21 20 20 11 10 22 32 36 42 46 45 45 44 42 41
25 25 25 25 25 25 25 25 25 24 24 24 24 24 24 23 22 22 20 18 17 16 14 13 12 11 12 10 10 8 5 4 3 7 4 3 3 14 24 25 24 22 22 23 22 25 26 23 20 20 14 8 10 11 14 23 19 8 9 16 19 15 9 10 15 13 15 17 12 12 12 19 23 17 21 22 12 17 30 35 37 44 48 47 48 46 44 44
26 25 25 25 25 25 25 25 25 24 25 24 24 24 24 23 22 21 21 18 17 15 14 12 11 10 10 9 9 7 12 15 9 8 5 6 6 9 23 28 27 24 23 26 25 27 31 27 21 20 13 7 11 14 15 19 19 12 9 12 17 20 18 15 18 17 15 13 12 11 11 16 16 12 20 20 16 24 32 36 39 42 45 45 46 46 45 45
26 26 26 26 26 26 25 25 24 24 24 24 24 24 23 22 22 21 20 19 17 15 13 12 10 10 9 8 6 6 14 15 6 11 8 7 8 6 20 28 27 28 27 29 29 29 33 28 24 21 11 9 12 13 16 15 14 13 12 14 14 19 23 21 20 19 18 16 18 13 11 16 16 15 18 17 21 30 33 37 40 41 42 43 44 43 43 45
26 26 26 26 26 26 26 25 25 25 25 24 24 23 23 22 21 21 20 19 17 15 13 12 11 9 8 7 4 6 12 6 3 14 12 7 6 4 17 27 27 28 29 31 30 29 31 28 27 23 11 12 15 13 15 11 8 12 16 18 14 15 20 21 19 20 21 20 20 13 9 18 24 20 14 17 28 34 37 39 41 43 42 41 42 41 42 44
26 26 27 27 26 26 26 26 25 25 25 24 24 23 22 21 20 20 21 20 17 16 13 11 11 9 8 6 6 3 6 4 8 16 15 9 8 6 14 25 27 28 28 30 30 30 32 29 28 26 15 14 15 15 16 11 11 15 17 19 18 17 17 20 21 22 22 19 20 12 6 18 30 19 7 20 35 37 40 39 41 44 42 42 41 40 41 43
27 27 28 28 27 27 27 26 26 25 25 25 24 23 22 21 19 20 21 19 17 16 14 12 11 10 10 8 11 8 5 6 7 13 13 10 11 10 12 21 26 27 27 29 29 30 33 30 27 23 14 12 14 13 15 18 19 19 17 14 15 18 16 18 18 20 18 13 19 13 4 13 23 13 10 29 39 40 41 39 41 42 40 42 41 38 39 42
28 28 28 28 28 28 27 28 26 26 25 24 23 23 21 19 18 20 21 19 18 16 15 15 12 12 10 13 19 10 4 7 5 6 7 9 12 12 11 16 22 26 27 29 28 29 32 31 27 21 13 9 9 6 10 18 20 20 17 9 9 12 12 14 15 19 16 8 18 14 3 9 13 10 21 37 41 41 41 39 39 39 39 40 40 37 36 41
29 29 28 28 29 29 29 28 27 26 25 23 23 22 20 18 17 20 22 20 19 17 17 17 14 14 10 15 23 12 7 11 12 11 10 14 16 16 16 15 17 20 23 28 28 27 29 31 26 24 21 11 6 7 10 14 14 13 11 6 6 7 8 14 16 19 16 11 19 15 3 8 8 15 31 39 41 40 37 38 38 37 38 39 39 36 35 39
30 30 29 29 29 29 29 28 27 26 24 23 22 20 19 16 18 23 22 18 15 14 16 16 14 13 11 19 24 17 16 18 18 16 14 18 19 19 20 18 16 16 15 19 25 26 27 30 27 23 24 19 14 13 12 11 9 6 4 4 5 4 6 12 15 16 13 13 21 16 4 7 8 20 35 41 44 41 35 36 38 38 38 38 38 37 36 38
31 30 30 29 30 29 28 28 27 25 24 22 20 21 19 17 22 23 15 12 14 15 16 13 11 9 10 21 24 14 13 16 19 20 20 22 22 20 21 21 18 16 12 12 18 25 27 28 26 18 19 21 18 13 7 5 4 2 3 4 3 5 4 8 13 17 13 12 20 15 5 5 9 22 36 41 43 41 35 35 37 37 38 39 39 39 38 38
31 31 30 29 30 29 28 28 25 23 22 20 20 21 18 18 23 18 8 11 18 22 18 10 7 6 7 13 13 7 9 9 12 16 24 25 23 22 21 20 20 17 14 11 12 21 26 25 22 20 18 15 10 7 4 4 4 2 4 4 4 5 4 5 6 14 16 11 14 15 7 3 11 24 35 38 39 37 33 33 36 37 38 40 39 40 40 38
32 32 31 30 29 29 29 28 25 21 21 20 21 22 19 20 21 12 6 11 22 27 17 6 3 7 11 9 7 6 5 3 5 6 19 26 27 24 19 21 23 20 18 15 13 19 24 21 17 16 15 10 4 5 4 6 6 3 3 4 6 4 4 4 3 8 14 10 10 14 10 4 13 25 33 37 38 35 32 33 36 37 38 39 40 41 41 40
33 32 32 31 29 30 29 28 25 20 20 20 21 23 19 21 20 6 4 15 27 25 11 5 2 3 10 11 11 9 5 4 7 7 11 21 29 26 20 23 25 23 21 17 16 21 21 16 11 7 7 7 6 6 7 7 6 5 4 3 5 5 5 6 5 6 10 11 10 11 12 7 16 25 30 38 40 35 33 35 37 37 38 39 40 42 42 42
33 33 33 32 30 30 29 28 24 19 20 19 21 23 21 27 22 1 5 21 25 16 6 7 8 5 10 16 19 15 12 14 14 10 9 16 28 28 21 22 26 27 20 11 14 20 15 8 8 7 7 10 9 9 8 4 4 6 6 4 5 5 5 7 8 7 8 11 10 10 13 10 18 23 24 34 40 36 34 35 35 37 38 39 40 43 43 43
34 33 33 33 32 31 29 28 23 18 19 19 23 25 26 32 20 2 17 32 28 20 21 25 22 23 26 30 30 22 21 21 17 14 12 15 25 28 23 21 22 22 16 7 9 16 14 6 7 11 10 12 12 10 7 4 6 6 5 6 7 6 7 9 11 9 8 9 10 13 15 12 20 23 21 31 35 28 30 31 32 36 38 40 41 43 44 44
34 33 33 33 32 30 28 26 21 17 18 18 22 24 24 26 16 12 30 38 38 28 27 35 32 34 35 35 32 24 21 18 16 17 14 15 23 23 21 20 14 11 13 11 9 11 12 7 12 15 10 9 10 10 8 6 8 8 6 6 7 6 8 11 13 10 8 8 10 14 15 12 20 22 22 30 27 22 29 31 32 37 38 40 43 43 45 45
34 33 33 33 32 31 27 24 19 15 16 14 19 22 21 23 18 20 26 27 42 37 24 30 31 34 37 37 36 26 18 15 17 21 16 13 20 20 17 16 10 7 11 12 8 7 8 12 17 13 7 7 9 10 11 10 10 8 6 5 6 6 6 9 12 9 7 7 8 14 15 11 17 21 22 26 24 26 38 39 38 42 39 39 42 44 45 44
34 32 32 32 32 31 27 22 17 15 14 13 19 22 22 26 21 24 24 15 30 36 23 18 19 27 31 32 31 23 17 15 17 23 20 13 18 25 18 11 9 8 10 12 10 9 8 13 14 10 7 10 10 11 13 11 9 8 7 6 6 7 5 7 10 7 5 6 7 13 14 8 13 17 18 27 31 32 42 46 45 47 45 44 47 47 47 45
34 33 31 32 31 30 26 19 16 17 16 14 19 21 22 25 22 27 27 9 13 21 15 9 5 12 15 14 14 13 18 19 18 22 22 15 17 24 18 11 11 9 11 15 15 13 10 6 11 13 11 12 11 11 12 10 8 10 11 9 8 10 11 10 9 5 4 6 7 12 10 6 10 15 14 22 29 29 35 39 36 40 44 46 47 47 48 49
34 33 32 32 30 29 25 18 18 22 19 17 20 22 23 22 22 29 23 5 6 10 6 7 5 7 9 13 14 9 15 18 22 26 23 18 16 17 14 13 12 9 11 16 15 13 13 7 15 17 14 13 13 11 12 11 7 9 14 14 13 13 13 13 10 5 4 6 6 10 9 5 7 17 17 17 18 19 23 25 26 32 36 38 42 43 46 49
33 33 33 31 27 26 23 19 21 24 21 21 23 23 23 21 23 28 15 1 4 6 3 7 5 11 17 20 20 9 8 12 22 28 27 22 18 14 11 10 9 8 10 12 9 8 10 9 12 14 15 16 14 11 13 12 7 8 13 16 16 14 14 14 8 3 4 4 6 8 10 6 5 12 19 19 18 19 18 17 22 30 33 35 40 43 46 47
32 32 32 30 24 22 21 21 23 25 22 22 24 23 24 23 24 22 7 1 4 4 5 9 6 12 24 32 21 4 4 8 13 25 31 29 23 17 12 8 7 7 8 7 7 7 9 12 11 13 16 14 13 11 12 14 9 7 10 13 15 15 16 16 8 4 5 4 5 5 6 6 5 9 17 22 22 19 17 16 17 25 32 37 41 44 47 48
31 29 30 28 20 16 19 21 24 26 23 22 25 24 24 26 21 11 2 1 4 4 5 9 10 16 33 42 16 11 8 12 3 15 29 32 26 18 11 9 9 7 8 9 8 7 10 14 14 13 14 11 12 13 13 15 11 6 8 11 14 15 16 15 8 5 5 4 6 5 4 5 5 7 13 20 22 18 18 19 17 21 32 38 40 44 47 49
31 27 27 26 17 12 15 19 23 26 24 23 23 24 26 24 14 3 4 0 3 7 8 11 15 19 33 37 14 1 14 16 9 13 20 28 28 19 10 10 10 6 9 12 9 5 7 15 17 13 11 10 11 12 12 14 12 7 7 8 10 13 15 12 7 6 6 5 8 8 4 4 5 5 9 14 17 17 18 19 18 23 34 39 41 44 45 46
33 25 23 22 15 12 14 17 24 26 25 23 22 27 27 16 4 3 2 1 2 9 12 12 15 19 25 23 13 13 14 11 18 24 14 17 24 23 15 14 12 7 7 10 10 8 7 14 19 14 12 10 9 12 13 14 13 9 8 8 7 8 9 8 5 5 5 6 10 11 7 6 5 5 7 11 15 19 18 16 16 22 32 39 41 43 45 46
34 25 20 17 14 13 14 18 25 27 23 21 25 30 22 7 3 3 1 3 4 8 11 10 12 18 19 15 11 15 14 9 19 23 12 7 12 15 10 10 10 6 5 6 8 9 10 11 11 13 19 15 8 10 14 15 15 10 7 8 7 5 5 5 3 4 6 6 8 9 8 7 6 5 5 8 14 21 21 19 20 21 28 37 39 42 46 47
36 26 16 12 13 11 13 17 24 27 22 21 28 27 13 4 3 1 2 7 5 5 8 10 12 15 15 11 9 12 12 9 14 16 11 8 4 8 8 6 5 6 8 6 4 5 11 13 7 9 20 20 11 8 9 12 13 10 7 6 6 4 4 5 4 3 5 6 7 7 8 6 6 6 7 8 10 15 19 23 27 26 28 36 39 42 45 46
37 27 14 9 10 9 10 14 19 25 23 23 27 19 5 4 2 1 3 4 2 5 7 9 13 13 12 9 8 10 8 7 14 15 12 12 8 3 9 9 8 8 7 5 4 4 6 10 12 11 12 16 15 8 6 9 10 10 9 7 6 6 6 6 5 3 4 6 8 7 6 5 5 5 9 11 9 11 19 26 36 39 39 41 44 45 45 45
37 26 13 6 6 8 9 12 16 21 22 23 21 10 5 2 1 4 4 1 2 7 7 9 12 10 8 6 8 11 6 5 14 14 11 12 10 6 4 6 7 6 5 4 5 7 7 7 11 13 6 9 15 11 8 9 9 11 10 8 7 6 6 5 4 5 4 4 6 5 5 5 5 5 8 10 10 13 23 30 39 45 48 49 47 45 44 45
36 21 10 5 5 8 10 12 17 19 19 19 12 4 3 0 1 3 4 3 3 7 8 9 10 7 7 6 7 12 8 6 13 12 9 10 7 7 8 6 6 7 4 2 2 4 9 8 5 10 9 8 13 12 11 10 9 10 9 7 8 6 5 3 3 5 4 2 4 4 4 5 5 6 5 5 8 9 20 28 32 35 39 40 39 39 42 45
35 17 6 6 9 12 12 14 16 16 15 13 7 1 0 2 1 1 3 4 4 7 8 8 7 5 6 6 6 11 10 7 10 9 7 8 6 7 9 8 13 15 10 4 3 2 6 8 4 9 14 14 14 11 12 12 7 6 8 9 8 6 6 3 4 2 4 5 5 4 4 3 2 6 6 4 6 4 11 20 24 30 33 32 32 37 41 43
36 17 11 15 19 19 16 15 14 15 12 6 3 2 3 1 3 3 3 6 6 7 6 5 5 5 7 7 7 13 13 7 9 8 6 7 5 9 10 8 14 16 15 9 4 2 4 6 6 9 14 18 21 16 12 14 10 6 9 9 5 4 4 4 2 2 3 5 4 4 6 4 1 5 6 6 8 7 8 15 19 26 30 29 32 38 42 45
36 13 11 19 23 18 14 12 12 13 8 3 0 4 3 1 5 5 3 6 7 6 4 2 3 4 6 7 7 12 12 8 8 7 5 5 3 10 11 7 11 17 21 17 4 2 7 5 7 10 12 14 18 15 10 13 14 10 9 9 8 5 6 5 4 4 4 4 3 4 6 5 4 5 4 6 11 11 9 13 18 21 23 28 34 39 43 46
35 12 8 20 22 15 13 12 13 9 3 2 2 4 2 1 5 9 8 9 7 4 3 2 3 3 4 6 7 10 10 8 9 7 4 4 4 9 13 9 12 19 25 20 7 5 6 3 4 9 8 6 9 10 8 12 13 9 7 8 8 5 6 5 3 4 4 4 3 3 4 5 5 6 8 11 14 14 11 11 16 19 24 32 37 40 44 44
34 13 6 20 21 15 15 12 10 5 1 1 3 2 3 2 7 12 12 12 6 2 3 3 3 3 3 6 8 8 8 8 9 7 5 7 6 5 13 14 13 19 23 16 7 7 6 2 4 7 7 5 5 8 12 12 9 8 7 8 8 4 3 4 2 3 5 3 4 4 4 6 6 7 13 17 15 14 14 13 14 20 30 38 41 42 44 44
31 10 6 22 24 19 18 12 9 5 1 1 2 1 5 4 7 10 13 16 8 3 5 4 4 5 3 6 7 7 7 6 7 7 5 7 7 4 11 18 15 17 18 11 7 8 6 3 4 6 6 5 6 7 13 15 10 8 7 7 10 6 5 6 5 3 4 3 4 5 4 7 7 7 12 16 15 15 16 14 13 19 32 40 43 46 46 46
24 8 8 24 27 22 16 9 8 8 2 4 6 7 9 7 7 8 12 15 8 3 6 5 5 6 4 5 7 7 7 4 4 5 5 7 7 6 14 22 20 17 14 8 7 10 8 3 4 6 5 9 14 12 10 14 13 10 7 6 9 7 6 8 7 5 6 5 4 4 3 6 7 7 10 14 15 16 19 16 12 20 34 40 43 46 46 47
20 14 15 24 24 21 14 5 6 7 4 9 12 12 13 11 9 11 11 10 6 4 5 5 5 6 4 4 6 7 7 3 2 3 7 7 7 10 15 21 22 17 11 6 6 11 10 3 2 6 7 9 13 11 9 10 12 10 7 6 8 10 9 8 6 5 6 7 5 2 4 7 8 5 7 12 16 17 20 19 17 22 33 40 43 45 45 47
19 17 18 23 22 22 15 4 5 5 5 11 12 11 14 12 10 12 11 8 5 4 3 3 5 5 4 3 5 7 5 2 1 3 6 6 7 11 15 19 20 14 7 6 7 9 8 3 3 6 5 5 6 5 5 6 8 8 8 10 11 14 12 6 4 5 5 8 8 5 4 7 7 5 4 8 14 13 13 17 24 28 33 39 43 44 45 46
15 10 17 25 21 21 15 7 5 4 6 10 10 9 11 10 11 14 13 8 6 5 2 2 4 6 5 3 5 7 4 4 2 2 2 5 8 9 13 18 20 14 10 11 11 8 5 3 2 3 3 3 5 4 2 3 3 5 10 15 13 13 14 7 4 5 5 6 7 6 6 8 8 8 9 4 11 12 9 14 24 32 37 40 40 40 42 44
10 4 11 22 20 16 15 14 12 7 5 8 7 7 9 8 9 15 14 9 11 10 4 2 5 6 5 4 5 8 6 2 2 2 2 5 6 6 13 19 19 16 12 11 13 8 3 3 5 6 7 6 7 10 10 8 7 9 11 16 15 13 14 10 5 5 6 5 6 8 9 9 8 8 9 4 6 9 9 11 15 25 36 40 41 41 42 43
6 2 5 11 12 11 14 17 16 9 7 8 5 4 9 8 7 11 11 9 14 14 4 2 5 5 4 6 4 4 8 8 6 4 3 6 6 7 14 18 15 12 12 12 14 8 2 4 7 9 11 13 15 19 19 14 11 13 13 15 18 14 13 12 7 7 7 6 5 9 9 10 8 8 8 3 6 8 8 9 13 23 33 38 42 44 44 43
4 4 5 6 5 6 8 12 15 12 9 9 4 3 8 9 8 9 9 11 15 13 5 1 4 6 7 8 4 2 6 7 5 4 3 4 6 7 10 11 9 11 16 12 10 6 1 5 7 9 16 20 19 19 17 14 13 12 13 15 21 17 16 14 9 8 9 8 8 9 10 11 8 7 8 7 5 7 8 12 21 28 33 36 40 42 42 42
3 3 5 7 6 6 9 13 16 12 8 7 4 3 6 8 8 8 7 9 10 9 8 5 6 10 10 7 4 2 4 5 4 5 4 4 6 6 6 6 5 11 15 10 7 6 2 4 7 12 18 20 18 14 11 10 9 9 10 11 20 20 17 15 10 8 8 8 9 9 10 11 9 8 8 7 5 6 8 11 20 28 30 32 36 38 39 41
4 4 6 8 7 8 11 11 11 7 6 6 3 2 6 6 7 9 8 8 7 6 8 7 7 9 8 6 5 3 4 5 6 8 7 5 4 2 1 3 5 10 12 8 7 6 3 4 9 12 12 13 13 11 11 12 10 9 9 5 15 20 18 15 11 8 6 7 7 8 9 9 6 2 2 2 6 10 9 7 12 24 31 33 35 37 39 41
6 6 8 8 5 6 8 7 7 5 3 3 2 3 6 6 8 10 8 8 8 8 8 9 9 6 4 5 5 4 5 7 9 12 13 12 8 4 3 2 5 9 9 7 7 6 3 4 7 8 7 8 9 13 16 16 12 6 6 8 6 15 14 11 10 7 4 5 4 6 6 7 4 3 6 7 9 10 8 6 8 18 29 33 34 34 36 40
8 9 10 7 3 3 5 5 5 4 2 3 6 6 7 9 10 9 5 7 10 12 14 14 9 4 3 4 5 8 11 13 16 19 20 19 17 13 11 11 11 9 6 6 7 6 4 4 5 5 6 7 9 15 16 12 7 3 6 12 7 5 7 3 3 4 4 0 4 5 6 6 4 7 10 9 9 8 6 7 10 15 23 29 31 32 35 39
Wind_Direction
4 3 1 358 357 354 353 352 351 350 348 345 343 342 342 342 342 342 338 331 324 322 324 325 317 307 299 293 286 282 282 278 274 266 260 261 254 238 229 219 191 192 195 185 181 182 184 187 189 183 179 189 205 214 211 216 221 205 182 226 236 228 223 214 197 146 152 160 154 180 184 186 211 213 199 175 191 171 151 153 152 154 151 151 155 155 158 159
2 1 359 357 355 352 352 350 350 349 346 344 342 341 341 341 341 339 338 334 325 321 321 322 319 309 301 295 287 285 284 284 281 267 264 274 266 238 219 211 190 188 195 194 192 189 188 189 187 181 183 192 206 214 214 218 218 207 173 213 227 217 219 212 178 140 150 163 162 178 185 186 203 202 195 187 180 164 141 136 135 129 135 144 150 154 158 159
1 359 357 355 353 351 350 349 349 347 345 343 340 339 339 339 339 337 337 333 326 320 317 320 319 310 302 295 287 286 288 293 288 276 274 267 246 224 203 203 195 195 199 203 202 197 195 192 186 180 185 199 209 213 216 220 219 216 206 214 237 222 236 243 206 153 154 160 163 180 187 191 204 199 194 184 166 161 149 146 139 133 140 146 152 155 157 160
1 359 356 354 352 350 349 348 348 346 345 343 340 339 337 337 337 335 334 332 328 320 316 318 317 312 305 296 287 286 296 304 293 276 266 233 232 211 195 192 195 199 197 201 207 203 197 190 186 181 186 208 216 217 223 225 216 212 211 219 238 213 232 249 214 158 151 158 166 179 189 201 209 198 185 176 166 167 160 159 155 148 149 151 155 158 159 162
0 358 355 353 351 350 348 348 347 346 345 343 341 339 336 336 333 332 332 330 327 319 316 315 316 314 303 296 288 282 298 319 287 198 155 152 225 203 191 187 192 195 193 193 198 201 195 187 187 184 192 215 215 220 229 226 218 219 227 230 240 216 214 232 204 166 157 165 166 173 187 196 199 198 185 178 172 176 169 165 162 156 156 158 160 161 163 166
360 358 355 353 350 349 347 347 347 346 344 343 342 339 336 333 331 331 329 329 325 318 314 311 314 310 302 297 286 270 250 262 200 165 150 120 185 197 186 185 188 186 190 190 191 195 193 191 191 190 199 215 211 218 230 224 218 234 245 237 239 228 228 221 197 189 180 179 174 175 184 178 183 193 185 183 176 168 169 167 164 161 161 161 162 164 166 169
359 357 355 353 351 349 347 347 347 345 344 343 342 338 335 332 330 328 326 326 321 316 311 307 310 305 300 290 279 260 238 253 244 193 174 126 125 180 184 186 188 188 191 191 189 187 191 196 197 198 199 209 216 223 234 229 222 231 249 246 238 226 230 224 201 197 193 190 194 177 155 167 179 177 177 182 170 162 165 166 164 161 161 161 163 166 169 173
359 356 354 353 351 349 347 347 346 345 343 342 342 338 335 331 326 324 323 322 318 314 307 302 305 296 294 284 274 259 247 265 255 191 187 134 111 145 183 184 185 190 192 191 190 185 190 198 202 202 200 214 217 221 230 232 229 231 241 248 238 221 221 218 201 195 197 195 201 192 153 171 184 172 174 178 163 159 161 162 160 158 160 163 165 167 170 175
359 355 353 353 351 349 347 347 346 344 343 342 341 338 335 329 325 323 319 319 318 313 305 297 298 288 285 271 243 266 263 276 136 183 188 165 128 126 181 182 179 186 190 191 191 187 190 198 203 202 203 219 219 229 230 225 234 230 236 245 237 220 215 209 197 191 196 198 206 210 169 178 183 179 182 171 159 158 158 157 159 159 161 166 168 170 172 175
360 357 355 353 352 350 347 347 346 344 342 341 341 338 335 329 326 324 318 323 322 314 308 295 291 281 276 249 181 244 268 109 131 182 187 192 177 150 180 186 182 182 185 187 190 192 193 198 202 202 213 228 223 230 227 220 236 236 240 247 240 232 220 204 198 194 196 201 209 205 152 176 180 182 181 159 159 157 155 155 159 162 165 169 170 172 175 177
360 359 356 354 353 351 348 348 346 343 342 342 342 339 335 329 329 325 322 328 323 316 311 298 291 275 266 226 197 227 233 137 137 179 189 208 194 175 183 192 193 190 186 185 191 196 196 198 198 202 219 231 228 238 239 233 240 247 251 258 246 239 229 205 198 200 197 204 211 192 124 188 183 184 162 153 158 157 154 155 161 163 167 172 172 173 176 178
359 359 358 355 353 353 350 348 347 344 343 344 343 341 337 334 332 327 326 329 321 316 308 302 294 271 265 234 224 229 200 178 181 195 205 215 207 203 200 197 203 206 202 197 197 198 199 198 198 207 221 226 229 250 257 243 241 248 250 264 259 244 236 211 200 202 197 201 206 179 114 210 191 173 157 153 156 157 156 158 162 165 168 173 176 176 176 178
357 359 359 355 353 353 350 349 347 345 346 346 346 345 342 341 340 332 327 322 314 313 305 302 292 270 257 241 243 254 264 247 251 256 226 206 211 215 216 212 211 213 215 214 209 202 198 198 202 218 232 246 254 241 262 265 256 250 239 240 248 247 240 216 203 200 197 200 194 169 144 220 183 157 154 154 157 156 157 161 164 167 169 173 178 180 178 178
356 358 359 356 355 353 350 350 348 346 348 349 349 349 345 344 343 335 328 324 324 325 313 305 293 272 240 247 264 275 272 266 256 241 204 201 210 209 213 218 218 216 218 222 217 207 200 202 210 226 240 253 265 262 275 281 270 262 249 243 217 221 245 218 202 194 195 202 185 166 199 226 170 155 157 158 160 158 160 163 165 167 170 174 179 183 183 183
357 357 358 357 354 354 352 350 349 347 349 351 349 348 345 340 341 338 337 354 3 353 334 316 295 278 252 267 280 274 250 250 240 217 190 199 209 207 210 211 213 211 211 220 215 210 207 209 215 228 246 253 258 264 280 280 273 267 248 270 223 198 247 230 203 191 192 199 184 175 212 207 158 157 162 164 163 161 163 165 168 169 172 175 179 184 185 187
356 355 358 357 353 355 354 352 351 346 349 354 348 345 342 337 342 340 339 2 359 349 339 320 298 287 270 285 289 251 225 244 244 210 191 196 203 204 206 208 208 202 208 218 204 206 210 213 220 228 240 251 247 234 250 277 282 247 202 249 246 196 220 244 214 196 192 191 190 198 217 164 153 162 166 168 166 164 164 166 170 171 173 176 179 184 187 188
355 353 355 356 353 354 355 353 353 345 347 354 348 345 342 340 347 336 321 349 340 336 327 289 310 293 262 268 282 257 237 276 310 233 201 200 201 200 201 209 208 199 207 214 200 202 209 214 222 229 232 236 219 182 210 242 243 252 211 229 247 211 198 222 238 212 198 192 197 206 222 185 154 165 168 170 169 166 166 170 172 174 176 177 179 183 187 189
354 352 352 354 353 353 355 353 353 346 344 352 349 346 345 350 356 332 302 338 328 328 322 226 143 312 264 261 267 263 262 280 293 272 223 209 203 199 202 210 205 196 201 208 207 207 209 214 216 220 227 220 209 190 202 218 208 223 219 217 250 231 215 217 221 220 195 197 204 201 222 202 156 167 173 172 172 169 171 174 174 176 177 178 179 182 187 190
352 351 349 351 352 352 353 351 354 348 342 349 344 342 353 0 6 53 300 328 318 316 300 223 193 233 275 276 274 271 277 286 286 268 229 210 206 204 208 210 201 191 190 196 205 205 203 205 207 211 220 213 213 208 207 215 195 208 212 215 243 234 235 234 229 219 179 191 208 200 219 202 161 172 176 174 174 171 173 175 176 178 179 179 180 183 186 189
350 349 346 349 350 350 351 350 353 351 346 350 345 351 6 4 7 4 320 317 298 279 272 262 245 248 265 273 277 286 287 284 280 257 221 202 207 210 213 209 198 190 188 188 192 199 196 195 218 217 215 210 214 215 205 222 242 236 223 225 240 237 240 240 237 230 180 184 211 205 218 202 166 174 174 171 175 172 173 176 180 182 180 181 182 184 188 190
349 348 345 346 347 348 350 348 351 355 353 353 356 8 16 6 2 331 327 317 304 294 271 267 259 252 262 268 272 287 299 291 269 242 217 207 211 210 208 202 192 192 194 183 174 192 196 211 229 219 211 205 208 213 206 219 244 249 239 234 244 238 241 243 241 234 185 186 216 207 216 204 170 175 171 167 173 176 178 180 183 185 183 183 183 185 189 192
349 346 344 344 345 347 349 348 350 355 353 355 3 12 11 0 351 334 331 314 309 311 288 277 268 254 261 266 267 277 287 280 261 238 213 212 216 202 198 196 191 203 190 178 177 183 198 227 228 210 194 200 199 204 209 220 234 244 248 243 246 241 256 265 256 245 201 194 213 204 212 203 173 176 170 167 174 181 183 184 184 184 183 183 184 185 187 189
349 345 344 345 343 345 350 350 349 350 349 356 360 1 358 351 348 342 337 304 302 313 312 298 270 255 261 263 265 269 258 248 255 242 216 213 217 199 197 198 193 206 188 181 189 182 203 230 218 192 187 201 202 200 202 217 228 234 241 234 244 242 240 260 259 254 226 218 205 195 206 202 171 175 173 174 179 183 187 188 186 184 182 183 185 186 186 187
348 344 343 344 342 344 351 350 345 349 349 355 356 354 354 350 351 347 336 300 285 309 332 357 297 273 275 284 288 257 241 239 239 236 217 214 217 200 201 202 192 211 200 189 194 200 223 215 170 182 202 202 204 204 198 206 221 229 235 230 236 239 231 239 254 287 302 266 217 183 197 214 171 172 181 182 182 187 191 191 188 187 184 183 184 186 186 187
349 345 341 343 343 342 350 352 346 350 350 352 353 350 356 356 352 345 333 304 277 290 342 29 27 1 2 3 345 257 239 248 237 235 226 219 214 199 205 206 197 215 204 192 194 210 235 202 161 183 204 204 209 210 199 198 207 224 232 230 230 239 243 245 255 284 310 291 247 182 185 237 187 175 183 186 186 193 194 192 190 188 186 183 182 185 187 189
349 346 340 342 343 339 350 1 352 352 351 351 353 351 357 358 347 341 334 354 306 268 348 9 12 7 4 355 335 274 233 269 253 247 241 230 220 204 203 204 206 219 198 192 199 212 230 204 176 186 196 203 213 216 208 197 196 219 225 228 230 238 250 253 258 250 232 264 258 202 186 212 217 186 184 184 188 192 193 195 193 186 183 183 183 185 187 189
347 345 340 340 342 341 353 4 359 358 354 350 352 352 353 352 344 338 339 100 319 291 359 5 4 353 350 347 335 213 176 304 258 245 241 233 229 222 216 202 203 216 184 181 214 208 202 200 197 197 196 201 210 214 208 197 202 218 210 221 233 237 246 251 254 242 239 273 288 252 203 197 208 196 187 185 189 190 190 197 195 186 183 184 186 186 187 189
345 343 339 338 343 345 352 1 1 359 356 351 352 351 350 347 339 338 44 120 325 358 7 349 352 346 346 348 345 187 261 318 292 239 234 227 228 229 229 210 197 212 193 193 214 192 185 201 203 203 203 203 209 210 201 200 215 219 188 206 229 238 247 250 250 253 261 288 294 277 222 212 229 207 187 184 188 188 191 195 192 187 187 187 188 188 189 190
345 341 337 336 342 346 349 358 357 354 356 355 353 351 346 342 337 7 87 97 344 25 6 349 354 345 344 349 1 155 304 308 328 296 242 222 225 227 236 220 199 213 218 216 221 189 184 202 201 207 216 207 209 211 197 201 218 216 201 209 220 231 245 248 238 244 256 257 258 252 205 221 261 226 185 182 186 188 193 196 190 188 190 189 190 190 190 191
346 339 336 334 339 348 352 358 355 354 358 357 354 350 345 341 1 72 61 299 348 7 357 359 358 343 344 346 349 2 340 317 343 335 286 224 220 222 235 235 216 219 235 232 228 224 221 206 198 207 223 208 200 207 202 204 210 201 210 229 235 236 246 251 228 216 231 240 248 241 205 209 262 257 201 184 185 187 189 194 191 191 192 193 192 190 190 192
348 338 335 333 333 345 347 352 359 360 359 358 353 349 347 357 78 90 36 325 328 354 357 358 352 347 351 347 337 351 347 339 1 356 326 254 216 210 222 229 218 216 239 247 234 232 237 223 203 205 214 207 192 204 205 204 205 198 196 214 239 259 268 267 224 180 210 234 248 228 194 203 240 259 231 204 194 188 185 187 190 193 195 195 194 191 191 193
350 341 336 333 329 339 344 346 358 1 358 357 350 345 354 40 42 165 320 338 328 353 3 346 343 346 340 337 345 350 345 344 1 3 346 322 260 200 199 203 197 206 226 236 236 226 227 231 229 213 211 206 199 206 204 202 202 202 197 191 207 224 238 240 220 201 208 228 246 204 176 209 231 235 232 225 214 193 186 187 185 190 195 194 194 193 192 193
352 344 339 337 323 328 346 344 352 356 353 350 345 345 33 85 34 321 330 352 339 338 351 339 335 336 329 337 1 352 348 7 4 359 351 344 343 238 217 208 185 197 215 209 211 224 227 230 227 227 218 202 203 203 191 201 197 194 200 187 185 197 208 222 230 235 203 221 243 199 174 224 236 243 232 221 220 191 188 190 185 187 192 193 195 193 191 193
354 349 340 347 333 327 346 346 346 348 345 344 344 359 69 83 360 4 341 288 315 334 341 337 330 328 333 350 13 13 11 12 6 1 354 352 359 3 300 242 208 217 229 197 200 212 225 235 219 222 217 183 203 208 181 183 191 199 201 186 191 197 192 199 205 210 199 226 246 200 187 204 187 228 227 213 223 190 181 190 189 190 193 193 193 191 188 192
356 355 344 1 14 356 355 349 342 339 338 347 356 31 79 22 292 347 336 318 330 339 339 339 338 341 360 359 8 25 27 358 360 1 2 360 353 8 0 340 1 3 335 258 243 217 226 239 209 213 218 190 206 209 181 173 188 203 196 188 209 196 163 181 202 188 156 173 237 212 208 203 184 245 251 220 245 200 173 183 189 195 197 192 189 188 188 191
357 6 24 39 25 4 347 334 333 329 334 357 22 32 214 184 212 301 334 358 345 334 337 348 358 354 357 354 351 7 7 354 1 3 2 349 338 17 20 12 24 26 26 1 289 279 233 237 202 200 216 215 214 206 186 184 180 186 196 202 203 169 150 192 246 241 126 163 236 236 237 276 272 261 268 233 251 238 169 176 184 193 195 188 186 189 191 192
357 14 58 34 10 356 336 320 320 313 320 9 69 283 265 204 33 1 335 3 349 338 348 355 10 9 352 348 346 355 356 359 9 6 351 330 340 28 19 8 26 26 15 358 278 302 329 266 240 215 214 216 216 214 205 192 167 163 200 195 151 130 162 173 208 272 157 182 255 251 232 262 234 242 263 226 227 247 192 174 181 189 187 184 188 192 193 194
356 14 69 22 360 355 345 332 330 308 299 37 131 272 270 173 29 2 339 10 360 355 16 353 1 20 358 344 341 352 357 5 8 0 348 329 357 36 27 0 12 12 360 351 319 323 342 303 266 244 226 213 207 211 222 206 188 184 190 169 146 172 198 176 179 206 185 189 263 271 236 225 205 228 265 221 217 234 217 179 180 184 181 184 190 193 195 195
359 7 55 10 354 357 357 346 346 326 289 56 244 265 299 176 9 358 11 31 23 7 2 332 8 21 349 341 341 355 1 356 357 353 350 348 343 26 36 12 346 357 357 350 337 324 327 310 282 266 254 236 201 195 216 214 201 188 166 163 172 186 184 174 180 174 163 185 216 248 245 235 228 217 225 228 219 220 215 183 178 182 182 186 190 193 196 196
2 355 6 3 355 353 353 353 4 7 168 180 219 241 350 354 350 357 23 37 37 51 2 317 350 357 339 349 347 358 1 349 354 349 332 353 343 3 36 23 346 346 350 346 339 335 335 351 297 295 310 294 218 196 207 210 203 186 170 177 186 171 148 172 212 168 146 160 185 194 232 246 244 216 218 227 221 216 213 191 181 185 183 186 190 193 195 195
3 345 322 358 1 358 2 21 27 6 239 280 259 313 1 3 337 349 32 32 19 64 33 354 354 356 359 6 357 360 358 345 356 346 319 353 356 350 18 10 353 345 345 344 357 349 343 359 298 294 329 300 253 234 212 206 206 192 175 184 188 167 142 178 230 228 169 163 168 175 223 254 245 215 217 224 217 218 216 196 181 184 182 185 190 193 194 193
2 336 332 359 3 5 15 43 23 356 1 4 358 1 2 1 343 351 27 23 6 34 30 11 8 8 16 12 356 348 343 345 15 350 311 330 337 322 345 353 353 352 344 330 338 332 318 304 268 269 282 264 265 274 241 213 209 197 181 183 187 174 158 181 211 209 189 205 197 172 218 267 255 207 203 222 220 216 214 202 177 176 182 186 191 194 193 192
351 329 342 359 7 22 38 56 10 6 12 357 359 6 3 358 358 0 3 1 2 27 25 22 18 11 17 8 346 327 325 356 69 341 312 318 323 319 332 345 349 349 345 333 333 332 327 337 307 294 287 268 267 278 276 237 210 200 196 179 183 192 182 178 187 173 182 206 207 207 243 267 271 225 199 222 224 217 212 198 173 170 181 187 191 194 193 192
340 323 333 354 20 45 50 36 2 1 349 353 356 5 6 359 357 355 344 347 23 47 28 25 16 357 341 337 327 318 336 59 127 305 316 309 309 318 327 339 343 338 328 321 326 332 334 350 350 324 308 285 271 271 293 265 215 207 204 190 193 196 182 155 144 157 194 209 191 187 231 253 269 288 286 236 214 209 203 182 168 169 180 189 192 193 192 191
342 328 329 345 19 53 52 34 22 353 341 353 350 355 3 353 348 350 341 347 30 43 32 7 358 342 327 330 334 333 10 108 169 278 296 296 304 313 322 331 332 319 296 302 317 324 311 287 301 310 281 252 238 223 261 301 276 246 211 196 194 187 179 163 130 157 204 215 192 187 223 259 285 314 323 273 188 183 172 164 168 172 179 187 190 191 191 190
345 344 332 339 2 34 31 20 21 11 349 352 344 350 355 337 337 351 351 359 7 4 16 27 355 342 329 346 352 339 341 344 318 325 278 301 308 303 319 324 318 309 308 330 344 337 286 271 264 250 256 268 272 274 286 305 305 283 239 204 188 181 182 173 147 171 186 181 194 209 221 249 282 304 308 298 158 159 152 147 163 172 178 182 185 188 191 190
347 1 357 341 345 1 5 5 6 359 342 344 333 324 344 344 348 354 355 354 346 343 3 70 358 343 336 344 347 331 331 327 327 332 300 306 305 301 319 316 302 319 353 4 353 340 279 299 282 259 272 281 281 280 282 285 275 276 268 219 190 180 182 179 182 193 163 145 208 232 223 228 254 273 271 248 140 139 141 144 160 172 177 180 182 185 189 190
356 335 359 359 342 347 353 341 332 328 335 347 336 313 345 360 3 354 348 341 339 343 355 5 350 349 339 339 339 308 326 329 321 317 303 306 311 317 324 304 294 353 10 360 346 351 313 286 286 297 304 296 286 278 272 266 252 262 272 224 193 184 187 186 195 193 159 156 210 225 215 215 229 246 250 241 186 158 149 159 167 171 176 178 179 183 187 188
358 323 335 353 344 315 304 301 307 317 333 336 325 328 353 0 356 349 342 333 331 341 348 342 350 346 333 332 345 317 327 336 314 307 303 299 313 328 333 302 304 358 0 346 344 1 332 276 299 319 311 296 288 284 285 290 271 275 290 228 191 189 195 188 184 189 177 184 201 194 197 216 225 222 230 237 198 142 126 149 162 165 171 175 177 181 186 187
334 328 318 333 328 299 294 301 312 321 320 315 308 329 344 348 345 340 333 320 309 325 346 343 335 333 328 334 338 307 320 321 292 295 301 297 308 331 352 313 306 333 342 339 339 347 339 301 316 324 311 291 293 310 331 333 304 284 312 280 195 192 198 193 183 185 195 207 196 165 180 224 254 229 178 130 104 100 94 112 154 164 168 172 175 180 184 187
298 312 312 316 314 302 302 309 313 306 296 304 302 328 337 332 333 336 322 302 308 327 334 324 316 317 326 335 321 298 320 318 297 302 305 294 282 244 192 243 281 309 329 329 320 325 323 302 310 327 318 288 306 335 335 324 308 290 344 345 222 193 193 198 181 159 183 210 166 131 171 230 261 82 80 74 78 85 87 83 122 160 171 173 175 178 182 185
294 307 313 309 296 298 303 303 308 303 287 314 324 331 330 317 329 353 342 308 324 331 321 315 316 325 321 312 305 310 321 317 305 303 300 289 275 251 228 230 242 258 286 302 306 300 287 295 311 331 321 284 306 331 322 315 332 360 20 0 321 193 133 119 146 80 20 277 154 160 199 220 191 120 93 75 66 67 64 67 98 143 167 174 174 176 180 185